User: anonymous   Login
Location: Mentone
(34.5413°N, 85.5351°W)
Time: 12:51:11
(UTC-05:00)
Language:

Cosmos 2026 Rocket - Orbit

View from above orbital plane
View from above orbital plane
View from above satellite
View from above satellite

Ground track
Ground track

The orbit data is extracted from the following two-line orbital elements,

1 20046U 89042B   16209.55724946 -.00000030  00000-0 -44544-4 0  9995
2 20046  82.9374 185.1122 0040591 258.6242 240.1522 13.78067076364548
Epoch (UTC): 27 July 2016 13:22:26
Eccentricity: 0.0040591
inclination: 82.9374°
perigee height: 941 km
apogee height: 1000 km
right ascension of ascending node: 185.1122°
argument of perigee: 258.6242°
revolutions per day: 13.78067076
mean anomaly at epoch: 240.1522°
orbit number at epoch: 36454

The dashed part of the orbit path shows where the satellite is in the earth's shadow,  

DLR